Weather History for KGNA - March, 2013

Change the Weather History Date:

Saturday, March 30, 2013

  Actual Average (KCKC) Record (KCKC)
Temperature  
Mean Temperature 36 °F -  
Max Temperature 46 °F 36 °F 51 °F (2005)
Min Temperature 28 °F 19 °F 5 °F (2011)
Degree Days  
Heating Degree Days 28    
Moisture  
Dew Point 30 °F    
Average Humidity 82    
Maximum Humidity 97    
Minimum Humidity 45    
Precipitation  
Precipitation 0.49 in - - ()
Sea Level Pressure  
Sea Level Pressure 29.86 in    
Wind  
Wind Speed 2 mph (West)    
Max Wind Speed 12 mph    
Max Gust Speed 20 mph    
Averages and records for this station are not official NWS values.
T = Trace of Precipitation, MM = Missing Value Source: NWS Daily Summary

Daily Weather History Graph

Daily Weather History Graph

Search for Another Location

Airport or City:

Trip Planner

Search our weather history database for the weather conditions in past years. The results will help you decide how hot, cold, wet, or windy it might be!

Date:

Astronomy

Mar. 30, 2013 Rise Set
Actual Time 6:43 AM CDT 7:28 PM CDT
Civil Twilight 6:12 AM CDT 8:00 PM CDT
Nautical Twilight 5:35 AM CDT 8:37 PM CDT
Astronomical Twilight 4:56 AM CDT 9:16 PM CDT
Moon 11:54 PM CDT (3/30) 8:22 AM CDT (3/30)
Length of Visible Light 13h 47m
Length of Day
12h 45m
Waning Gibbous, 86% of the Moon is Illuminated
Mar 30
Waning Gibbous
Apr 2
Last Quarter
Apr 10
New
Apr 18
First Quarter
Apr 25
Full

Hourly Weather History & Observations

Time (CDT) Temp. Windchill Dew Point Humidity Pressure Visibility Wind Dir Wind Speed Gust Speed Precip Events Conditions
12:56 AM 28.9 °F - 21.9 °F 75% 30.08 in - Calm Calm - N/A   Unknown
1:56 AM 30.9 °F - 24.1 °F 76% 30.06 in - Calm Calm - N/A   Unknown
2:56 AM 32.0 °F - 26.1 °F 79% 30.03 in - Calm Calm - N/A   Unknown
3:56 AM 33.1 °F - 30.9 °F 92% 30.01 in - Calm Calm - 0.06 in   Unknown
4:56 AM 34.0 °F - 30.9 °F 89% 29.98 in - Calm Calm - 0.05 in   Unknown
5:56 AM 34.0 °F - 32.0 °F 92% 29.97 in - Calm Calm - 0.03 in   Unknown
6:56 AM 34.0 °F - 32.0 °F 92% 29.96 in - Calm Calm - 0.08 in   Unknown
7:56 AM 34.0 °F - 32.0 °F 92% 29.92 in - Calm Calm - 0.06 in   Unknown
8:56 AM 35.1 °F - 33.1 °F 92% 29.91 in - Calm Calm - 0.05 in   Unknown
9:56 AM 35.1 °F - 33.1 °F 92% 29.88 in - Calm Calm - 0.08 in   Unknown
10:56 AM 35.1 °F - 33.1 °F 92% 29.86 in - Calm Calm - 0.04 in   Unknown
11:56 AM 36.0 °F - 35.1 °F 97% 29.84 in - Calm Calm - 0.04 in   Unknown
12:56 PM 36.0 °F - 34.0 °F 93% 29.82 in - Calm Calm - N/A   Unknown
1:56 PM 37.9 °F 34.4 °F 34.0 °F 86% 29.80 in - WSW 4.6 mph - N/A   Unknown
2:56 PM 36.0 °F 30.3 °F 34.0 °F 93% 29.80 in - WSW 6.9 mph - N/A   Unknown
3:56 PM 37.0 °F 30.4 °F 34.0 °F 89% 29.78 in - WSW 9.2 mph - N/A   Unknown
4:56 PM 36.0 °F 29.6 °F 33.1 °F 89% 29.77 in - WSW 8.1 mph - N/A   Unknown
5:56 PM 36.0 °F 29.6 °F 33.1 °F 89% 29.75 in - WSW 8.1 mph - N/A   Unknown
6:56 PM 36.0 °F 32.1 °F 33.1 °F 89% 29.74 in - West 4.6 mph - N/A   Unknown
7:56 PM 34.0 °F - 32.0 °F 92% 29.73 in - Calm Calm - N/A   Unknown
8:56 PM 43.0 °F 39.5 °F 28.0 °F 56% 29.73 in - Variable 5.8 mph - N/A   Unknown
9:56 PM 45.0 °F 39.7 °F 25.0 °F 46% 29.72 in - NW 10.4 mph - N/A   Unknown
10:56 PM 44.1 °F 38.1 °F 24.1 °F 45% 29.71 in - NNW 11.5 mph 19.6 mph N/A   Unknown
11:56 PM 42.1 °F 36.6 °F 23.0 °F 47% 29.70 in - NNW 9.2 mph 18.4 mph N/A   Unknown